Flag for Nepal Weather past 2 weeks in Kathmandu, Nepal

Now
84 °F

Scattered clouds.


Feels Like: 87 °F
Forecast: 63 / 79 °F
Wind: 12 mph from West

Location: Kathmandu Airport

Current Time: Jul 28, 2015 at 2:10:04 PM

Latest Report: Jul 28, 2015 at 1:35 PM


Visibility: N/A

Pressure: 29.80 "Hg (25.71 "Hg at 1305m altitude)

Humidity: 55%

Dew point: 66 °F

Historic Weather in Kathmandu — Graph

°F

Kathmandu temperature yesterday

Maximum temperature yesterday: 86 °F (at 1:35 PM)
Minimum temperature yesterday: 68 °F (at 2:35 AM)
Average temperature yesterday: 77 °F

Past Weeks' High & Low Weather Summary

 TemperatureHumidityPressure
High86 °F (Jul 27, 1:35 PM)100% (Jul 15, 4:35 AM)29.98 "Hg (Jul 15, 4:35 AM)
Low66 °F (Jul 25, 7:35 PM)49% (Jul 27, 1:35 PM)29.62 "Hg (Jul 15, 4:35 AM)
Average74 °F84%29.82 "Hg
* Reported Jul 13 12:35 PM — Jul 28 12:35 PM, Kathmandu, Weather by CustomWeather, © 2015

Note: Actual official high and low records may vary slightly from our data, if they occured in-between our weather recording intervals... More about our weather records

Advertising

Kathmandu weather history for previous 24 hours

 ConditionsComfort  
Time TempWeatherWind HumidityBarometerVisibility
12:35 PM
Tue, Jul 28
82 °FScattered clouds.6 mph62%29.83 "Hg5 mi
11:35 AM84 °FScattered clouds.3 mph58%29.83 "Hg5 mi
10:35 AM82 °FPassing clouds.5 mph62%29.86 "Hg5 mi
9:35 AM79 °FPassing clouds.3 mph70%29.83 "Hg5 mi
8:35 AM77 °FPassing clouds.No wind79%29.83 "Hg5 mi
7:35 AM72 °FPassing clouds.No wind83%29.83 "Hg4 mi
6:35 AM70 °FBroken clouds.No wind94%29.83 "Hg4 mi
5:35 AM68 °FPartly cloudy.No wind94%29.83 "Hg4 mi
4:35 AM68 °FPartly cloudy.No wind94%29.83 "Hg4 mi
3:35 AM68 °FDrizzle. Mostly cloudy.No wind94%29.86 "Hg4 mi
2:35 AM68 °FRain. Mostly cloudy.No wind94%29.89 "Hg4 mi
1:35 AM68 °FRain. Mostly cloudy.No wind94%29.89 "Hg4 mi
12:35 AM72 °FPartly cloudy.6 mph88%29.92 "Hg5 mi
11:35 PM
Mon, Jul 27
73 °FThunderstorms. Partly cloudy.3 mph83%29.92 "Hg5 mi
10:35 PM75 °FThunderstorms. Partly cloudy.3 mph83%29.92 "Hg5 mi
9:35 PM75 °FPartly cloudy.3 mph83%29.92 "Hg5 mi
8:35 PM77 °FPartly cloudy.6 mph74%29.89 "Hg5 mi
7:35 PM77 °FScattered clouds.5 mph74%29.83 "Hg5 mi
6:35 PM79 °FBroken clouds.7 mph65%29.83 "Hg5 mi
5:35 PM81 °FBroken clouds.6 mph58%29.80 "Hg5 mi
4:35 PM81 °FBroken clouds.12 mph58%29.80 "Hg5 mi
3:35 PM82 °FBroken clouds.9 mph62%29.80 "Hg5 mi
2:35 PM84 °FScattered clouds.9 mph51%29.80 "HgN/A
Weather by CustomWeather, © 2015

See weather overviewHow to use our weather pages